Dewpoint
36 36 36 37 38 39 40 41 43 44 43 42 41 41 42 42 40 39 40 41 40 40 40 41 41 42 43 44 43 43 42 42 43 43 43 42 43 43 43 43 42 42 42 42 43 43 43 44 45 46 46 47 46 46 46 46 46 46 46 46 46 47 47 47 48 48 47 47 48
36 36 36 37 38 38 39 40 43 44 44 44 43 42 42 42 41 40 40 42 41 41 41 41 41 41 41 42 41 41 41 41 41 41 41 41 41 42 41 41 41 41 41 41 42 42 42 42 44 45 45 45 45 45 45 45 45 45 45 45 45 45 45 45 45 45 46 45 46
38 37 36 36 37 37 37 38 40 41 43 44 44 44 43 43 42 42 42 41 40 40 40 40 40 40 40 40 41 41 41 40 40 40 40 40 41 41 41 41 41 41 41 41 41 41 41 41 43 44 45 45 44 43 43 43 44 45 45 44 44 44 45 44 44 44 45 45 45
39 38 37 37 37 37 37 37 38 39 40 41 41 41 41 41 41 41 40 40 39 39 39 38 38 38 39 39 40 40 40 41 40 40 40 40 40 40 41 40 41 41 41 41 41 41 41 41 42 43 44 43 42 41 41 41 42 43 44 44 44 44 44 44 44 44 44 45 45
39 39 39 39 38 38 38 38 38 38 38 39 40 40 40 40 40 39 39 39 38 38 38 38 38 38 38 39 39 39 40 40 41 40 40 40 40 40 40 40 40 40 40 40 40 40 41 41 41 42 42 42 42 41 41 41 41 41 42 43 43 43 43 44 44 44 44 45 45
38 39 40 40 40 39 39 39 39 39 39 39 39 38 38 38 38 38 38 37 38 38 39 39 39 39 39 39 39 39 40 40 40 40 40 39 39 40 40 40 39 39 40 40 40 40 40 40 40 40 41 41 41 41 41 41 41 41 42 42 43 43 44 44 43 44 44 45 45
37 39 40 41 41 41 41 41 41 41 41 41 40 39 38 37 38 37 37 37 38 39 39 39 38 38 38 38 38 38 39 39 39 39 38 38 38 38 38 38 38 38 39 39 39 39 40 40 40 40 40 40 40 40 40 40 41 41 41 42 42 43 44 44 44 44 44 44 44
36 37 39 41 42 43 43 44 44 44 44 44 42 41 40 39 38 38 37 37 38 38 38 38 37 37 38 38 38 37 37 37 37 37 37 37 37 36 36 36 36 36 36 37 37 37 38 38 39 39 39 39 39 39 40 40 40 41 41 41 41 42 44 45 45 45 44 44 44
36 36 38 40 42 44 45 46 47 47 47 46 45 44 43 42 40 39 38 37 37 37 37 37 37 37 38 38 37 37 36 36 36 35 36 36 35 35 35 35 35 35 35 35 36 36 36 37 37 38 38 39 39 39 39 39 40 40 40 40 41 41 42 44 45 45 44 44 44
35 36 37 39 41 44 45 47 48 49 49 49 48 47 47 46 44 42 40 38 37 37 36 36 36 36 36 37 36 36 36 35 35 34 34 35 34 34 35 35 35 35 35 35 36 36 36 36 36 36 37 37 37 37 38 38 39 39 40 40 40 40 41 41 42 43 43 44 44
36 36 37 37 40 41 44 47 48 48 49 49 49 49 49 49 47 45 42 39 37 36 36 36 36 36 35 36 35 35 35 34 34 35 35 35 35 35 36 36 36 36 36 36 37 37 37 37 36 36 36 36 36 36 37 37 37 38 38 39 40 40 40 40 40 41 42 42 43
36 37 37 38 39 40 42 45 46 47 48 48 48 48 49 49 49 47 45 40 38 36 36 36 36 35 35 35 35 34 34 35 35 35 35 35 36 36 36 36 36 36 37 37 37 37 38 37 37 37 36 36 36 36 36 37 37 38 38 38 39 39 39 39 39 40 40 41 43
37 38 39 39 39 40 41 42 43 44 45 45 46 47 47 48 48 46 44 40 37 36 35 35 35 35 34 34 35 35 35 35 36 36 36 36 36 36 37 37 37 37 37 37 37 38 38 38 38 38 37 37 37 37 37 37 37 38 38 38 38 38 38 38 38 39 40 40 41
38 39 39 40 40 40 41 41 41 42 42 43 44 44 45 45 44 42 40 38 36 35 34 34 35 35 35 35 35 35 35 36 36 36 36 36 37 37 37 37 37 37 37 37 38 38 38 38 38 38 38 38 38 38 38 38 38 38 38 38 38 38 38 38 38 39 40 40 41
39 39 40 40 41 42 43 43 43 44 44 44 43 42 42 41 40 38 37 36 35 34 34 34 35 35 36 36 36 36 36 36 36 36 36 37 37 37 37 37 37 37 38 38 38 39 39 39 39 39 39 38 38 38 39 39 39 39 39 38 38 38 38 38 38 39 39 40 40
40 40 40 40 41 42 43 43 44 44 44 44 42 41 41 40 39 37 36 36 35 34 34 35 35 36 36 36 36 36 36 36 36 37 37 37 38 38 38 38 38 38 39 39 40 41 42 42 41 40 40 39 39 39 39 39 39 39 39 39 39 39 40 40 40 39 39 39 39
40 40 41 41 42 42 42 43 43 43 43 42 41 41 42 41 40 39 38 36 36 35 35 35 35 36 36 36 36 36 36 36 37 37 38 39 39 39 38 39 39 40 41 42 43 43 43 43 41 40 40 40 40 40 40 40 40 40 40 40 40 40 40 40 40 40 40 39 39
39 40 41 41 42 42 42 42 42 42 41 41 41 42 42 42 41 40 39 38 37 36 36 36 36 36 36 36 37 37 37 37 37 38 39 40 40 39 39 40 40 41 42 43 43 43 42 41 40 40 40 40 40 40 40 40 40 39 39 38 38 38 39 39 39 39 39 38 39
37 38 39 40 40 41 41 42 42 41 41 41 41 42 42 42 41 41 40 40 39 38 37 37 37 37 37 37 38 38 39 39 39 40 40 41 40 39 39 40 40 41 41 41 41 41 41 40 40 40 40 40 40 40 40 39 38 38 37 37 37 37 37 37 38 38 38 38 38
36 37 38 38 38 39 39 40 40 40 41 41 41 41 41 41 41 41 41 41 41 41 40 40 40 39 39 39 39 39 40 40 40 40 41 41 40 39 39 40 40 40 40 40 40 40 40 40 39 38 38 38 38 38 37 37 36 36 36 36 36 36 36 36 36 36 37 37 37
36 37 37 37 37 37 38 38 39 39 39 40 40 40 40 40 41 41 41 41 42 42 41 41 41 40 40 40 40 40 40 42 41 41 41 41 40 39 39 40 40 39 39 39 39 39 38 38 37 36 36 36 36 35 35 35 35 35 35 35 35 35 35 35 35 36 36 36 36
36 36 37 37 37 37 37 38 38 38 38 38 38 39 39 40 40 40 40 41 42 42 42 42 42 41 41 41 41 41 41 43 42 41 41 40 40 39 39 39 39 39 39 38 38 38 37 37 36 36 35 35 34 34 33 33 33 33 33 33 34 34 34 34 34 35 35 35 36
36 36 37 37 37 37 37 37 37 37 37 38 38 38 38 39 39 40 40 40 41 42 42 43 43 42 42 41 41 41 41 41 41 40 40 39 39 39 40 39 38 37 37 37 37 37 37 36 36 35 35 34 34 33 32 32 32 32 32 32 32 32 33 33 34 34 34 34 35
36 36 37 37 37 37 37 36 37 37 37 37 37 38 38 38 39 40 40 40 41 41 41 41 42 42 41 41 40 40 40 40 40 39 39 39 39 40 40 40 38 37 36 36 36 36 36 36 35 34 34 34 33 33 32 32 31 31 31 31 31 31 31 32 33 33 33 34 35
36 36 36 36 36 36 36 36 36 36 36 36 37 37 38 38 39 39 40 40 40 40 40 40 40 41 41 40 40 39 39 38 38 38 39 39 40 40 40 40 39 38 37 36 37 37 37 36 35 34 33 33 32 32 32 31 31 31 30 30 29 29 29 30 31 31 31 32 33
35 35 36 36 36 36 36 36 36 36 36 36 36 37 37 38 39 39 39 40 40 40 40 40 40 40 40 40 38 37 37 36 37 37 38 39 39 40 40 39 38 38 37 37 37 37 37 37 36 34 33 31 31 31 31 30 30 29 29 29 29 28 28 28 28 28 29 30 31
35 35 35 35 35 35 35 36 36 36 36 36 36 36 37 38 38 39 39 39 39 39 39 40 39 39 39 39 37 36 36 36 36 36 37 38 38 39 40 40 39 38 39 38 37 36 36 36 36 35 33 31 31 30 29 29 29 28 28 29 28 28 27 27 27 27 27 28 28
34 34 34 34 34 34 35 35 36 36 36 36 36 36 37 37 38 38 38 38 38 39 39 39 39 39 39 37 36 35 35 35 35 36 36 37 38 39 40 40 39 38 37 37 37 36 36 35 35 34 33 32 31 31 30 29 28 27 27 27 27 27 27 27 27 27 27 27 27
33 34 34 34 34 34 34 35 35 35 36 36 36 36 37 37 38 37 37 37 37 38 39 40 40 39 38 36 36 35 36 36 35 35 36 36 37 39 39 39 39 39 38 37 36 36 35 35 34 34 33 32 31 31 30 29 28 27 27 26 27 27 27 27 27 26 26 26 26
33 33 34 34 34 34 34 34 34 35 35 36 36 36 37 37 37 37 36 36 37 38 38 39 39 38 37 36 35 35 36 36 36 36 35 35 36 37 38 39 39 38 37 36 36 36 35 34 34 33 32 31 31 30 29 28 27 27 26 26 26 26 27 27 27 26 26 26 25
33 33 33 34 34 34 34 34 35 35 35 34 35 36 36 36 37 37 37 37 37 37 37 37 36 35 34 33 33 33 34 34 35 35 35 34 35 36 36 38 38 37 37 36 36 35 35 34 33 32 31 30 29 28 27 27 26 26 25 25 25 25 26 26 26 25 25 26 25
33 33 33 34 33 33 34 34 35 35 34 34 34 34 34 36 36 37 37 37 37 36 36 36 34 32 31 31 31 31 31 31 32 33 33 33 32 32 33 35 36 37 37 36 36 35 34 33 32 31 30 29 28 27 27 26 25 24 24 24 24 24 24 25 24 24 25 26 26
33 33 33 33 33 33 34 34 34 34 34 33 32 32 33 35 36 36 36 37 36 36 35 34 33 32 31 31 29 28 28 27 28 28 29 29 29 29 29 30 32 34 36 37 36 35 34 32 31 30 30 29 27 26 25 24 24 23 23 23 23 23 24 24 23 23 24 25 25
33 33 33 33 33 33 33 33 34 34 33 32 32 32 33 34 36 36 36 36 35 34 32 31 31 30 29 28 28 27 26 25 24 24 24 25 25 25 25 26 27 29 32 34 36 35 34 32 31 30 29 28 27 25 23 22 22 22 22 22 22 22 23 23 23 23 23 24 25
33 33 33 33 32 32 33 33 33 33 32 32 32 33 33 34 35 36 36 35 34 32 31 29 28 27 27 26 26 25 24 23 22 22 22 22 22 22 22 23 24 27 29 30 32 34 34 33 31 30 28 27 26 24 23 22 21 21 20 20 21 22 22 23 23 23 23 24 24
33 33 32 32 32 32 32 32 32 32 32 32 33 34 34 35 36 36 36 34 33 31 29 27 27 26 25 24 23 23 22 22 21 21 22 22 21 21 21 22 22 25 27 28 29 30 31 33 31 29 27 27 25 24 22 22 21 20 20 19 19 20 21 22 22 22 22 23 24
33 32 32 32 32 31 31 32 31 31 31 32 34 35 35 35 36 36 35 33 32 30 28 26 25 25 24 23 23 23 23 23 22 22 22 22 22 21 21 21 22 23 26 27 27 28 28 30 30 29 27 25 24 23 22 21 20 20 20 19 19 19 20 21 21 22 22 23 24
33 33 32 32 31 31 31 31 31 31 31 32 34 34 35 35 35 35 34 32 30 28 27 25 24 24 24 24 23 24 24 24 23 23 22 22 22 22 21 20 21 22 24 26 27 27 27 27 29 28 27 25 23 22 22 21 20 20 19 18 18 19 19 20 19 20 22 22 24
32 32 32 31 31 31 30 30 29 29 30 31 32 33 34 33 33 34 34 32 30 28 27 25 24 24 24 24 24 23 23 24 24 23 22 22 22 22 22 20 20 21 23 25 26 27 27 28 29 28 27 24 23 22 21 21 20 20 19 18 18 18 18 19 19 19 20 22 24
31 31 31 31 30 29 28 27 27 27 27 29 30 31 33 33 33 34 34 33 30 28 27 25 24 24 24 24 23 23 23 23 23 23 23 22 23 23 22 21 20 20 21 23 25 27 27 28 29 28 27 23 22 22 21 21 20 20 19 19 18 18 18 18 18 18 19 21 23
30 30 29 29 28 27 27 25 25 24 25 26 28 30 32 33 33 33 33 31 30 28 26 25 24 24 24 23 23 23 22 22 22 23 23 23 23 23 22 21 19 19 19 22 24 26 27 27 31 30 27 23 22 21 21 21 20 19 19 18 18 18 17 17 18 18 18 19 21